Regional Weather Roundup
Issued by NWS

Home | Current Version | Previous Version | Graphics & Text | Print | Product List | Glossary On
Versions: 1 2 3 4 5 6 7 8 9 10 11 12 13 14 15 16 17 18 19 20 21 22 23 24 25 26 27 28 29 30 31 32 33 34 35 36 37 38 39 40 41 42 43 44 45 46 47 48 49 50
000
ASUS44 KMEG 140610
RWRTN
TENNESSEE HOURLY STATE WEATHER ROUNDUP
NATIONAL WEATHER SERVICE MEMPHIS TN
1200 AM CST THU DEC 14 2017

TNZ002-004-019-021-049-052-054-088>092-140700-
WEST TENNESSEE

CITY           SKY/WX    TMP DP  RH WIND       PRES   REMARKS
MEMPHIS INTL   CLEAR     45  28  51 CALM      29.85S
NWS MEMPHIS      N/A     40 N/A N/A MISG        N/A
JACKSON        CLEAR     43  28  55 SW9       29.83R
DYERSBURG      PTCLDY    42  28  57 W6        29.84R
SOMERVILLE     MOCLDY    46  28  49 SW6       29.83R
COVINGTON      MOCLDY    36  27  69 CALM      29.84R
UNION CITY     CLEAR     41  27  56 W5        29.81R
BOLIVAR        MOCLDY    45  28  53 SW8       29.83S
PARIS          PTCLDY    39  27  60 SW8       29.79S WCI  34
HUNTINGDON     PTCLDY    43  27  52 CALM      29.80S
LEXINGTON      MOCLDY    45  27  49 CALM      29.81S
SELMER         PTCLDY    41  27  56 SW7       29.82S
SAVANNAH       PTCLDY    37  27  65 VRB3      29.82S
$$

TNZ008-025-027-028-033-062-065-066-140700-
NORTH MIDDLE TENNESSEE

CITY           SKY/WX    TMP DP  RH WIND       PRES   REMARKS
NASHVILLE      CLEAR     48  24  39 W8        29.78S
PORTLAND       MOCLDY    45  25  45 W7        29.76R
CLARKSVILLE    CLEAR     44  24  45 W6        29.78R
SMYRNA         CLEAR     45  24  43 W9        29.79S
COOKEVILLE     CLOUDY    36  23  60 S6        29.77S WCI  31
GALLATIN       CLOUDY    45  25  45 VRB5      29.79S
CROSSVILLE     PTCLDY    40  22  48 W13       29.76S WCI  32
$$

TNZ061-075-076-078-094-096-097-140700-
SOUTH MIDDLE TENNESSEE

CITY           SKY/WX    TMP DP  RH WIND       PRES   REMARKS
FAYETTEVILLE   CLEAR     39  25  56 SW6       29.82S WCI  35
TULLAHOMA      PTCLDY    37  23  56 SW8       29.80S WCI  31
WINCHESTER     CLEAR     45  25  45 W8        29.82S
MCMINNVILLE    PTCLDY    39  23  52 SW6       29.79S WCI  35
COLUMBIA       PTCLDY    43  25  49 SW8       29.79S
SHELBYVILLE    CLEAR     37  25  60 S6        29.80S WCI  33
$$

TNZ017-018-042-046-047-140700-
NORTHEAST TENNESSEE

CITY           SKY/WX    TMP DP  RH WIND       PRES   REMARKS
TRI CITIES     CLOUDY    43  19  38 SW18G26   29.70F
ELIZABETHTON   CLOUDY    43  18  36 W9G17     29.71F
$$

TNZ012-013-036-069-073-074-140700-
CENTRAL EAST TENNESSEE

CITY           SKY/WX    TMP DP  RH WIND       PRES   REMARKS
KNOXVILLE      PTCLDY    42  24  49 SW16G25   29.76F
OAK RIDGE      PTCLDY    31  21  66 SW3       29.79F
DOWNTOWN KNOXV CLEAR     43  21  42 W8G15     29.77F
GATLINBURG     PTCLDY    46  19  34 SW18      29.75F
MORRISTOWN     CLOUDY    43  19  39 SW17      29.72F
JACKSBORO      CLOUDY    41  21  45 CALM      29.76F
$$

TNZ083-085-099-140700-
SOUTHEAST TENNESSEE

CITY           SKY/WX    TMP DP  RH WIND       PRES   REMARKS
CHATTANOOGA    CLEAR     40  23  50 S9        29.82F WCI  34
DAYTON         MOCLDY    28  25  86 CALM      29.80S
$$

SKY/WX REPORTED AS FAIR MEANS FEW OR NO CLOUDS BELOW
12 THOUSAND FEET.




USA.gov is the U.S. government's official web portal to all federal, state and local government web resources and services.